TimeEST,TemperatureF,Dew PointF,Humidity,Sea Level PressureIn,VisibilityMPH,Wind Direction,Wind SpeedMPH,Gust SpeedMPH,PrecipitationIn,Events,Conditions,WindDirDegrees,DateUTC
12:09 AM,39.9,39.0,97,29.87,4.0,East,4.6,-,N/A,,Scattered Clouds,90,2014-01-16 05:09:00
12:18 AM,42.1,39.9,92,29.88,4.0,Calm,Calm,-,N/A,,Mostly Cloudy,0,2014-01-16 05:18:00
12:49 AM,41.0,39.2,93,29.88,2.5,NW,3.5,-,N/A,,Mostly Cloudy,320,2014-01-16 05:49:00
12:52 AM,39.9,39.0,97,29.89,2.0,NNW,3.5,-,N/A,,Mostly Cloudy,330,2014-01-16 05:52:00
12:59 AM,39.9,39.0,97,29.88,1.0,NNW,3.5,-,N/A,,Mist,340,2014-01-16 05:59:00
1:09 AM,39.9,39.0,97,29.87,0.5,North,3.5,-,N/A,Fog,Fog,360,2014-01-16 06:09:00
1:52 AM,39.9,37.9,93,29.89,0.2,Calm,Calm,-,N/A,Fog,Fog,0,2014-01-16 06:52:00
2:10 AM,39.9,39.0,97,29.88,0.8,NE,3.5,-,N/A,,Mist,40,2014-01-16 07:10:00
2:17 AM,39.9,39.0,97,29.87,1.0,NE,3.5,-,N/A,,Mist,50,2014-01-16 07:17:00
2:24 AM,39.9,39.0,97,29.87,0.5,Calm,Calm,-,N/A,Fog,Fog,0,2014-01-16 07:24:00
2:35 AM,41.0,39.9,96,29.88,1.2,Calm,Calm,-,N/A,,Overcast,0,2014-01-16 07:35:00
2:52 AM,39.9,39.0,97,29.89,0.5,Calm,Calm,-,N/A,Fog,Fog,0,2014-01-16 07:52:00
3:19 AM,41.0,39.9,96,29.87,2.0,NE,3.5,-,N/A,,Overcast,50,2014-01-16 08:19:00
3:28 AM,41.0,39.9,96,29.87,4.0,NNE,3.5,-,N/A,,Overcast,20,2014-01-16 08:28:00
3:52 AM,42.1,39.9,92,29.86,4.0,NE,3.5,-,N/A,,Overcast,40,2014-01-16 08:52:00
4:03 AM,41.0,39.9,96,29.85,2.0,North,3.5,-,N/A,,Overcast,10,2014-01-16 09:03:00
4:20 AM,42.1,39.9,92,29.86,4.0,Variable,4.6,-,N/A,,Overcast,0,2014-01-16 09:20:00
4:52 AM,42.1,39.9,92,29.87,7.0,NE,3.5,-,N/A,,Overcast,40,2014-01-16 09:52:00
5:52 AM,42.1,41.0,96,29.86,7.0,Variable,4.6,-,N/A,,Overcast,0,2014-01-16 10:52:00
6:52 AM,42.1,41.0,96,29.88,7.0,Calm,Calm,-,N/A,,Overcast,0,2014-01-16 11:52:00
7:52 AM,42.1,41.0,96,29.87,4.0,North,4.6,-,N/A,,Overcast,10,2014-01-16 12:52:00
8:33 AM,43.0,41.0,93,29.85,10.0,Variable,4.6,-,N/A,,Overcast,0,2014-01-16 13:33:00
8:52 AM,43.0,41.0,93,29.86,10.0,NNE,5.8,-,N/A,,Overcast,20,2014-01-16 13:52:00
9:52 AM,44.1,41.0,89,29.88,10.0,NNE,4.6,-,N/A,,Mostly Cloudy,30,2014-01-16 14:52:00
10:52 AM,44.1,41.0,89,29.90,10.0,NNE,3.5,-,N/A,,Overcast,30,2014-01-16 15:52:00
11:52 AM,44.1,41.0,89,29.87,10.0,Variable,3.5,-,N/A,,Overcast,0,2014-01-16 16:52:00
12:00 PM,44.1,41.0,89,29.86,10.0,Variable,3.5,-,N/A,,Mostly Cloudy,0,2014-01-16 17:00:00
12:52 PM,43.0,41.0,93,29.87,10.0,NNW,4.6,-,N/A,,Overcast,330,2014-01-16 17:52:00
1:02 PM,42.1,39.0,89,29.87,6.0,NW,6.9,-,N/A,,Overcast,310,2014-01-16 18:02:00
1:16 PM,41.0,39.0,93,29.86,1.8,NNW,5.8,-,N/A,,Overcast,330,2014-01-16 18:16:00
1:32 PM,41.0,39.0,93,29.85,2.5,Variable,3.5,-,N/A,,Overcast,0,2014-01-16 18:32:00
1:44 PM,41.0,39.0,93,29.84,3.0,Variable,4.6,-,N/A,,Overcast,0,2014-01-16 18:44:00
1:52 PM,41.0,39.0,93,29.85,4.0,Variable,4.6,-,N/A,,Overcast,0,2014-01-16 18:52:00
2:18 PM,41.0,39.0,93,29.85,5.0,North,3.5,-,N/A,,Overcast,350,2014-01-16 19:18:00
2:28 PM,42.1,39.0,89,29.85,6.0,Calm,Calm,-,N/A,,Overcast,0,2014-01-16 19:28:00
2:52 PM,42.1,39.0,89,29.86,6.0,Calm,Calm,-,N/A,,Overcast,0,2014-01-16 19:52:00
3:52 PM,43.0,39.9,89,29.85,9.0,NE,4.6,-,N/A,,Overcast,40,2014-01-16 20:52:00
4:06 PM,43.0,39.9,89,29.85,10.0,Calm,Calm,-,N/A,,Overcast,0,2014-01-16 21:06:00
4:52 PM,43.0,39.9,89,29.86,10.0,NNE,3.5,-,N/A,,Overcast,20,2014-01-16 21:52:00
5:52 PM,43.0,39.9,89,29.86,10.0,NE,4.6,-,N/A,,Overcast,40,2014-01-16 22:52:00
6:52 PM,42.1,39.9,92,29.88,10.0,NE,3.5,-,N/A,,Overcast,40,2014-01-16 23:52:00
7:52 PM,42.1,39.9,92,29.89,10.0,Calm,Calm,-,N/A,,Overcast,0,2014-01-17 00:52:00
8:52 PM,42.1,39.9,92,29.91,10.0,NNW,3.5,-,N/A,,Overcast,330,2014-01-17 01:52:00
9:52 PM,42.1,39.9,92,29.92,10.0,NW,3.5,-,N/A,,Overcast,310,2014-01-17 02:52:00
10:52 PM,41.0,39.0,93,29.92,6.0,WNW,3.5,-,N/A,,Overcast,300,2014-01-17 03:52:00
11:52 PM,41.0,39.0,93,29.93,8.0,Calm,Calm,-,N/A,,Overcast,0,2014-01-17 04:52:00